Location: Poughquag
(41.6090°N, 73.6820°W)
Time: 05:08:24
(UTC-05:00)

Tiros 1 - Visible Passes

Search period start: 05 December 2023 00:00
Search period end: 15 December 2023 00:00
Orbit: 626 x 659 km, 48.4° (Epoch: 04 December)

Date Brightness Start Highest point End Pass type
(mag) Time Alt. Az. Time Alt. Az. Time Alt. Az.
05 Dec 7.8 04:31:08 53° ENE 04:31:08 53° ENE 04:34:48 10° ENE visible
05 Dec 7.9 06:08:43 14° WNW 06:12:29 39° N 06:17:00 10° ENE visible
06 Dec 7.4 04:54:54 54° N 04:54:54 54° N 04:59:22 10° ENE visible
06 Dec 8.0 06:32:58 10° WNW 06:37:24 36° N 06:41:49 10° ENE visible
07 Dec 9.9 03:41:00 15° ENE 03:41:00 15° ENE 03:41:48 10° ENE visible
07 Dec 7.8 05:18:35 37° NW 05:19:27 41° N 05:24:00 10° ENE visible
08 Dec 9.3 04:04:37 22° NE 04:04:37 22° NE 04:06:22 10° ENE visible
08 Dec 8.0 05:42:11 24° NW 05:44:20 36° N 05:48:47 10° ENE visible
09 Dec 8.7 04:28:10 30° NE 04:28:10 30° NE 04:30:58 10° ENE visible
09 Dec 8.0 06:05:45 15° NW 06:09:16 38° N 06:13:44 10° ENE visible
10 Dec 8.2 04:51:42 36° N 04:51:42 36° N 04:55:43 10° ENE visible
10 Dec 7.7 06:29:25 10° WNW 06:34:05 49° NNE 06:38:44 10° E visible
11 Dec 10.2 03:37:38 12° ENE 03:37:38 12° ENE 03:37:56 10° ENE visible
11 Dec 8.0 05:15:12 34° NNW 05:16:11 37° N 05:20:39 10° ENE visible
12 Dec 9.5 04:01:08 19° NE 04:01:08 19° NE 04:02:39 10° ENE visible
12 Dec 7.8 05:38:42 26° NW 05:41:02 46° NNE 05:45:39 10° E visible
13 Dec 8.8 04:24:38 29° NE 04:24:38 29° NE 04:27:33 10° ENE visible
13 Dec 7.3 06:02:12 18° WNW 06:05:44 70° NNE 06:10:30 10° ESE visible
14 Dec 7.9 04:48:09 44° NNE 04:48:09 44° NNE 04:52:32 10° E visible
14 Dec 7.3 06:25:43 11° WNW 06:30:17 68° SSW 06:35:01 10° SE visible
